Weather History for Blakely, GA

Change the Weather History Date:

Sunday, February 2, 2014

  Actual Average (KDHN) Record (KDHN)
Temperature  
Mean Temperature 62 °F 50 °F  
Max Temperature 73 °F 62 °F 80 °F (1950)
Min Temperature 51 °F 39 °F 14 °F (1951)
Degree Days  
Heating Degree Days 3 15  
Month to date heating degree days 30  
Since 1 July heating degree days 1246  
Growing Degree Days 12 (Base 50)    
Moisture  
Dew Point 58 °F    
Average Humidity 92    
Maximum Humidity 100    
Minimum Humidity 61    
Precipitation  
Precipitation 0.00 in 0.14 in 1.41 in (1959)
Month to date precipitation 0.28  
Year to date precipitation 4.91  
Sea Level Pressure  
Sea Level Pressure 30.10 in    
Wind  
Wind Speed 2 mph (SSE)    
Max Wind Speed 9 mph    
Max Gust Speed -    
Visibility 6 miles    
Events Fog    
T = Trace of Precipitation, MM = Missing Value Source: NWS Daily Summary

Daily Weather History Graph

Daily Weather History Graph

Search for Another Location

Airport:

Trip Planner

Search our weather history database for the weather conditions in past years. The results will help you decide how hot, cold, wet, or windy it might be!

Date:

Astronomy

Feb. 02, 2014 Rise Set
Actual Time 7:31 AM EST 6:15 PM EST
Civil Twilight 7:06 AM EST 6:40 PM EST
Nautical Twilight 6:37 AM EST 7:09 PM EST
Astronomical Twilight 6:08 AM EST 7:38 PM EST
Moon 9:12 AM EST (2/2) 9:41 PM EST (2/2)
Length of Visible Light 11h 34m
Length of Day
10h 44m
Waxing Crescent, 11% of the Moon is Illuminated
Feb 2
Waxing Crescent
Feb 6
First Quarter
Feb 14
Full
Feb 22
Last Quarter
Mar 1
New

Hourly Weather History & Observations

Time (EST) Temp. Dew Point Humidity Pressure Visibility Wind Dir Wind Speed Gust Speed Precip Events Conditions
12:15 AM 51.8 °F 51.8 °F 100% 30.15 in 1.0 mi Calm Calm - N/A   Overcast
12:35 AM 51.8 °F 51.8 °F 100% 30.15 in 0.8 mi East 3.5 mph - N/A   Overcast
12:55 AM 51.8 °F 51.8 °F 100% 30.14 in 0.5 mi East 3.5 mph - N/A Fog Fog
1:15 AM 51.8 °F 51.8 °F 100% 30.14 in 0.5 mi Calm Calm - N/A Fog Fog
1:35 AM 51.8 °F 51.8 °F 100% 30.14 in 0.8 mi Calm Calm - N/A   Overcast
1:55 AM 51.8 °F 51.8 °F 100% 30.14 in 0.8 mi Calm Calm - N/A   Overcast
2:15 AM 51.8 °F 51.8 °F 100% 30.14 in 0.8 mi Calm Calm - N/A   Overcast
2:35 AM 51.8 °F 51.8 °F 100% 30.14 in 0.8 mi Calm Calm - N/A   Overcast
2:55 AM 51.8 °F 51.8 °F 100% 30.13 in 0.5 mi Calm Calm - N/A Fog Fog
3:15 AM 51.8 °F 51.8 °F 100% 30.13 in 0.8 mi Calm Calm - N/A   Overcast
3:35 AM 51.8 °F 51.8 °F 100% 30.13 in 0.8 mi Calm Calm - N/A   Overcast
3:55 AM 51.8 °F 51.8 °F 100% 30.13 in 0.8 mi Calm Calm - N/A   Overcast
4:15 AM 51.8 °F 51.8 °F 100% 30.13 in 0.5 mi Calm Calm - N/A Fog Fog
4:35 AM 51.8 °F 51.8 °F 100% 30.13 in 0.5 mi Calm Calm - N/A Fog Fog
4:55 AM 51.8 °F 51.8 °F 100% 30.13 in 0.5 mi Calm Calm - N/A Fog Fog
5:15 AM 51.8 °F 51.8 °F 100% 30.13 in 0.5 mi Calm Calm - N/A Fog Fog
5:35 AM 51.8 °F 51.8 °F 100% 30.13 in 0.5 mi Calm Calm - N/A Fog Fog
5:55 AM 51.8 °F 51.8 °F 100% 30.13 in 0.2 mi Calm Calm - N/A Fog Fog
6:15 AM 51.8 °F 51.8 °F 100% 30.13 in 0.2 mi Calm Calm - N/A Fog Fog
6:35 AM 51.8 °F 51.8 °F 100% 30.14 in 0.5 mi Calm Calm - N/A Fog Fog
6:55 AM 51.8 °F 51.8 °F 100% 30.14 in 0.5 mi Calm Calm - N/A Fog Fog
7:15 AM 51.8 °F 51.8 °F 100% 30.15 in 0.5 mi Calm Calm - N/A Fog Fog
7:35 AM 51.8 °F 51.8 °F 100% 30.15 in 0.2 mi Calm Calm - N/A Fog Fog
7:55 AM 51.8 °F 51.8 °F 100% 30.16 in 0.2 mi Calm Calm - N/A Fog Fog
8:15 AM 51.8 °F 51.8 °F 100% 30.15 in 0.2 mi Calm Calm - N/A Fog Fog
8:35 AM 51.8 °F 51.8 °F 100% 30.15 in 0.2 mi Calm Calm - N/A Fog Fog
8:50 AM 53.6 °F 53.6 °F 100% 30.16 in 0.2 mi Calm Calm - N/A Fog Fog
9:15 AM 53.6 °F 53.6 °F 100% 30.17 in 0.2 mi Calm Calm - N/A Fog Fog
9:35 AM 53.6 °F 53.6 °F 100% 30.16 in 0.5 mi Calm Calm - N/A Fog Fog
9:55 AM 55.4 °F 55.4 °F 100% 30.16 in 5.0 mi South 3.5 mph - N/A   Overcast
10:15 AM 55.4 °F 55.4 °F 100% 30.17 in 3.0 mi SSE 3.5 mph - N/A   Overcast
10:35 AM 55.4 °F 55.4 °F 100% 30.16 in 3.0 mi SE 3.5 mph - N/A   Overcast
10:55 AM 55.4 °F 55.4 °F 100% 30.17 in 5.0 mi SSE 4.6 mph - N/A   Overcast
11:15 AM 57.2 °F 57.2 °F 100% 30.16 in 7.0 mi SSE 3.5 mph - N/A   Overcast
11:35 AM 59.0 °F 59.0 °F 100% 30.16 in 10.0 mi SSE 4.6 mph - N/A   Overcast
11:55 AM 59.0 °F 59.0 °F 100% 30.15 in 10.0 mi ESE 3.5 mph - N/A   Overcast
12:15 PM 60.8 °F 60.8 °F 100% 30.14 in 10.0 mi SE 4.6 mph - N/A   Mostly Cloudy
12:35 PM 62.6 °F 60.8 °F 94% 30.13 in 10.0 mi SSE 4.6 mph - N/A   Mostly Cloudy
12:55 PM 64.4 °F 60.8 °F 88% 30.12 in 10.0 mi Calm Calm - N/A   Overcast
1:15 PM 68.0 °F 60.8 °F 78% 30.10 in 10.0 mi SSE 3.5 mph - N/A   Scattered Clouds
1:35 PM 69.8 °F 60.8 °F 73% 30.08 in 10.0 mi SSE 6.9 mph - N/A   Scattered Clouds
1:55 PM 69.8 °F 60.8 °F 73% 30.08 in 10.0 mi SE 5.8 mph - N/A   Scattered Clouds
2:15 PM 69.8 °F 60.8 °F 73% 30.07 in 10.0 mi SE 4.6 mph - N/A   Mostly Cloudy
2:35 PM 71.6 °F 60.8 °F 69% 30.05 in 10.0 mi SSE 6.9 mph - N/A   Overcast
2:55 PM 71.6 °F 60.8 °F 69% 30.05 in 10.0 mi SSE 4.6 mph - N/A   Mostly Cloudy
3:15 PM 73.4 °F 60.8 °F 65% 30.04 in 10.0 mi South 6.9 mph - N/A   Scattered Clouds
3:35 PM 73.4 °F 60.8 °F 65% 30.03 in 10.0 mi SE 5.8 mph - N/A   Mostly Cloudy
3:55 PM 73.4 °F 60.8 °F 65% 30.02 in 10.0 mi South 6.9 mph - N/A   Mostly Cloudy
4:15 PM 73.4 °F 59.0 °F 61% 30.02 in 10.0 mi South 6.9 mph - N/A   Mostly Cloudy
4:35 PM 73.4 °F 59.0 °F 61% 30.02 in 10.0 mi South 5.8 mph - N/A   Mostly Cloudy
4:55 PM 73.4 °F 60.8 °F 65% 30.02 in 10.0 mi South 9.2 mph - N/A   Scattered Clouds
5:15 PM 71.6 °F 62.6 °F 73% 30.02 in 10.0 mi SE 8.1 mph - N/A   Clear
5:35 PM 71.6 °F 62.6 °F 73% 30.03 in 10.0 mi SSE 4.6 mph - N/A   Clear
5:55 PM 69.8 °F 62.6 °F 78% 30.03 in 10.0 mi South 9.2 mph - N/A   Mostly Cloudy
6:15 PM 69.8 °F 64.4 °F 83% 30.04 in 10.0 mi South 6.9 mph - N/A   Overcast
6:35 PM 68.0 °F 64.4 °F 88% 30.04 in 10.0 mi SSW 5.8 mph - N/A   Overcast
6:55 PM 68.0 °F 64.4 °F 88% 30.05 in 10.0 mi SSW 3.5 mph - N/A   Overcast
7:15 PM 68.0 °F 64.4 °F 88% 30.05 in 10.0 mi South 3.5 mph - N/A   Mostly Cloudy
7:35 PM 66.2 °F 64.4 °F 94% 30.05 in 10.0 mi South 4.6 mph - N/A   Scattered Clouds
7:55 PM 66.2 °F 64.4 °F 94% 30.04 in 10.0 mi South 4.6 mph - N/A   Scattered Clouds
8:15 PM 64.4 °F 64.4 °F 100% 30.04 in 10.0 mi South 3.5 mph - N/A   Scattered Clouds
8:35 PM 64.4 °F 64.4 °F 100% 30.03 in 10.0 mi Calm Calm - N/A   Mostly Cloudy
8:55 PM 64.4 °F 62.6 °F 94% 30.03 in 10.0 mi South 4.6 mph - N/A   Mostly Cloudy
9:15 PM 64.4 °F 64.4 °F 100% 30.03 in 10.0 mi South 4.6 mph - N/A   Mostly Cloudy
9:35 PM 64.4 °F 64.4 °F 100% 30.02 in 10.0 mi South 4.6 mph - N/A   Overcast
9:55 PM 64.4 °F 64.4 °F 100% 30.02 in 10.0 mi South 5.8 mph - N/A   Overcast
10:15 PM 64.4 °F 64.4 °F 100% 30.03 in 10.0 mi SSW 6.9 mph - N/A   Overcast
10:35 PM 64.4 °F 64.4 °F 100% 30.02 in 10.0 mi South 9.2 mph - N/A   Overcast
10:55 PM 64.4 °F 64.4 °F 100% 30.02 in 10.0 mi South 9.2 mph - N/A   Overcast
11:15 PM 64.4 °F 64.4 °F 100% 30.02 in 10.0 mi SSW 6.9 mph - N/A   Overcast
11:35 PM 64.4 °F 64.4 °F 100% 30.02 in 10.0 mi SSW 6.9 mph - N/A   Overcast
11:55 PM 64.4 °F 64.4 °F 100% 30.02 in 10.0 mi SSW 6.9 mph - N/A   Overcast